Year,Month,Day,Hour,Minute,Value (Times are PST for windgust in km/hr)
2015,08,30,00,00,1.60
2015,08,30,00,01,1.60
2015,08,30,00,26,1.60
2015,08,30,00,29,1.60
2015,08,30,00,31,1.60
2015,08,30,00,32,1.60
2015,08,30,00,33,1.60
2015,08,30,00,34,1.60
2015,08,30,00,35,1.60
2015,08,30,00,36,3.20
2015,08,30,00,37,1.60
2015,08,30,00,39,1.60
2015,08,30,00,43,1.60
2015,08,30,00,46,1.60
2015,08,30,00,47,1.60
2015,08,30,00,53,1.60
2015,08,30,00,54,3.20
2015,08,30,00,56,1.60
2015,08,30,00,59,1.60
2015,08,30,01,13,1.60
2015,08,30,01,14,3.20
2015,08,30,01,15,4.80
2015,08,30,01,16,6.40
2015,08,30,01,17,6.40
2015,08,30,01,18,3.20
2015,08,30,01,19,3.20
2015,08,30,01,20,3.20
2015,08,30,01,21,6.40
2015,08,30,01,22,6.40
2015,08,30,01,23,6.40
2015,08,30,01,24,4.80
2015,08,30,01,25,6.40
2015,08,30,01,26,4.80
2015,08,30,01,27,4.80
2015,08,30,01,28,1.60
2015,08,30,01,29,3.20
2015,08,30,01,30,1.60
2015,08,30,01,31,1.60
2015,08,30,01,32,3.20
2015,08,30,01,33,4.80
2015,08,30,01,34,1.60
2015,08,30,01,35,4.80
2015,08,30,01,36,4.80
2015,08,30,01,37,3.20
2015,08,30,01,38,1.60
2015,08,30,01,39,3.20
2015,08,30,01,40,1.60
2015,08,30,01,41,3.20
2015,08,30,01,42,1.60
2015,08,30,01,43,4.80
2015,08,30,01,44,3.20
2015,08,30,02,19,1.60
2015,08,30,02,20,1.60
2015,08,30,02,21,1.60
2015,08,30,02,22,1.60
2015,08,30,02,39,1.60
2015,08,30,02,40,4.80
2015,08,30,02,41,3.20
2015,08,30,02,42,1.60
2015,08,30,02,43,3.20
2015,08,30,02,44,1.60
2015,08,30,02,54,1.60
2015,08,30,02,56,1.60
2015,08,30,02,57,3.20
2015,08,30,02,58,1.60
2015,08,30,02,59,1.60
2015,08,30,03,01,1.60
2015,08,30,03,03,1.60
2015,08,30,03,06,1.60
2015,08,30,03,07,1.60
2015,08,30,03,08,1.60
2015,08,30,03,09,1.60
2015,08,30,03,10,3.20
2015,08,30,03,12,1.60
2015,08,30,03,13,1.60
2015,08,30,03,15,1.60
2015,08,30,03,16,1.60
2015,08,30,03,17,1.60
2015,08,30,03,19,1.60
2015,08,30,03,20,3.20
2015,08,30,03,21,1.60
2015,08,30,03,22,3.20
2015,08,30,03,23,3.20
2015,08,30,03,24,1.60
2015,08,30,03,25,1.60
2015,08,30,03,26,3.20
2015,08,30,03,27,1.60
2015,08,30,03,28,1.60
2015,08,30,03,29,3.20
2015,08,30,03,30,1.60
2015,08,30,03,31,1.60
2015,08,30,03,33,1.60
2015,08,30,03,34,3.20
2015,08,30,03,35,3.20
2015,08,30,03,36,3.20
2015,08,30,03,48,1.60
2015,08,30,03,49,3.20
2015,08,30,03,50,1.60
2015,08,30,03,51,1.60
2015,08,30,04,07,1.60
2015,08,30,04,08,1.60
2015,08,30,04,09,4.80
2015,08,30,04,10,3.20
2015,08,30,04,14,1.60
2015,08,30,04,15,3.20
2015,08,30,04,16,3.20
2015,08,30,04,17,3.20
2015,08,30,04,18,3.20
2015,08,30,04,19,1.60
2015,08,30,04,20,1.60
2015,08,30,04,27,1.60
2015,08,30,04,28,1.60
2015,08,30,04,29,1.60
2015,08,30,04,30,1.60
2015,08,30,04,31,1.60
2015,08,30,04,32,1.60
2015,08,30,04,33,1.60
2015,08,30,04,34,4.80
2015,08,30,04,35,3.20
2015,08,30,04,36,3.20
2015,08,30,04,37,4.80
2015,08,30,04,38,3.20
2015,08,30,04,39,3.20
2015,08,30,04,40,3.20
2015,08,30,04,41,3.20
2015,08,30,04,42,1.60
2015,08,30,04,43,1.60
2015,08,30,04,44,1.60
2015,08,30,04,45,1.60
2015,08,30,04,51,1.60
2015,08,30,04,52,1.60
2015,08,30,04,53,1.60
2015,08,30,04,54,4.80
2015,08,30,04,55,4.80
2015,08,30,04,56,1.60
2015,08,30,05,01,1.60
2015,08,30,05,02,3.20
2015,08,30,05,03,3.20
2015,08,30,05,04,3.20
2015,08,30,05,05,3.20
2015,08,30,05,06,1.60
2015,08,30,05,07,1.60
2015,08,30,05,15,3.20
2015,08,30,05,16,3.20
2015,08,30,05,17,3.20
2015,08,30,05,18,1.60
2015,08,30,05,19,3.20
2015,08,30,05,20,3.20
2015,08,30,05,21,1.60
2015,08,30,05,22,1.60
2015,08,30,05,24,1.60
2015,08,30,05,25,1.60
2015,08,30,05,26,1.60
2015,08,30,05,27,3.20
2015,08,30,05,28,3.20
2015,08,30,05,29,3.20
2015,08,30,05,30,3.20
2015,08,30,05,31,4.80
2015,08,30,05,32,1.60
2015,08,30,05,33,4.80
2015,08,30,05,34,4.80
2015,08,30,05,35,3.20
2015,08,30,05,36,3.20
2015,08,30,05,37,6.40
2015,08,30,05,38,6.40
2015,08,30,05,39,3.20
2015,08,30,05,40,1.60
2015,08,30,05,41,3.20
2015,08,30,05,42,1.60
2015,08,30,05,43,3.20
2015,08,30,05,44,3.20
2015,08,30,05,45,1.60
2015,08,30,05,47,3.20
2015,08,30,05,48,4.80
2015,08,30,05,49,3.20
2015,08,30,05,50,3.20
2015,08,30,05,51,1.60
2015,08,30,05,54,1.60
2015,08,30,05,55,1.60
2015,08,30,05,57,1.60
2015,08,30,05,58,1.60
2015,08,30,05,59,1.60
2015,08,30,06,00,1.60
2015,08,30,06,18,1.60
2015,08,30,06,19,1.60
2015,08,30,06,20,1.60
2015,08,30,06,21,1.60
2015,08,30,06,22,1.60
2015,08,30,06,23,3.20
2015,08,30,06,26,1.60
2015,08,30,06,29,1.60
2015,08,30,06,34,1.60
2015,08,30,06,39,1.60
2015,08,30,06,41,1.60
2015,08,30,06,42,1.60
2015,08,30,06,45,1.60
2015,08,30,06,46,4.80
2015,08,30,06,47,3.20
2015,08,30,06,49,1.60
2015,08,30,06,51,4.80
2015,08,30,06,52,1.60
2015,08,30,06,55,1.60
2015,08,30,06,58,1.60
2015,08,30,06,59,1.60
2015,08,30,07,08,1.60
2015,08,30,07,09,3.20
2015,08,30,07,10,1.60
2015,08,30,07,11,1.60
2015,08,30,07,16,1.60
2015,08,30,07,19,1.60
2015,08,30,07,20,3.20
2015,08,30,07,21,3.20
2015,08,30,07,35,1.60
2015,08,30,07,36,1.60
2015,08,30,07,46,1.60
2015,08,30,07,47,1.60
2015,08,30,07,48,1.60
2015,08,30,07,53,3.20
2015,08,30,07,55,1.60
2015,08,30,07,56,1.60
2015,08,30,07,57,1.60
2015,08,30,07,58,4.80
2015,08,30,07,59,4.80
2015,08,30,08,00,4.80
2015,08,30,08,01,3.20
2015,08,30,08,02,6.40
2015,08,30,08,03,4.80
2015,08,30,08,04,3.20
2015,08,30,08,05,3.20
2015,08,30,08,06,3.20
2015,08,30,08,07,4.80
2015,08,30,08,08,1.60
2015,08,30,08,09,1.60
2015,08,30,08,12,1.60
2015,08,30,08,13,3.20
2015,08,30,08,14,1.60
2015,08,30,08,17,1.60
2015,08,30,08,20,4.80
2015,08,30,08,21,3.20
2015,08,30,08,22,3.20
2015,08,30,08,23,3.20
2015,08,30,08,24,4.80
2015,08,30,08,25,4.80
2015,08,30,08,26,3.20
2015,08,30,08,35,1.60
2015,08,30,08,36,3.20
2015,08,30,08,37,3.20
2015,08,30,08,38,4.80
2015,08,30,08,39,4.80
2015,08,30,08,40,4.80
2015,08,30,08,41,3.20
2015,08,30,08,42,4.80
2015,08,30,08,43,4.80
2015,08,30,08,44,3.20
2015,08,30,08,45,4.80
2015,08,30,08,46,1.60
2015,08,30,08,47,6.40
2015,08,30,08,48,4.80
2015,08,30,08,49,4.80
2015,08,30,08,50,8.10
2015,08,30,08,51,8.10
2015,08,30,08,52,4.80
2015,08,30,08,53,3.20
2015,08,30,08,54,6.40
2015,08,30,08,55,4.80
2015,08,30,08,56,6.40
2015,08,30,08,57,3.20
2015,08,30,08,58,4.80
2015,08,30,08,59,4.80
2015,08,30,09,00,6.40
2015,08,30,09,01,9.60
2015,08,30,09,02,6.40
2015,08,30,09,03,4.80
2015,08,30,09,04,6.40
2015,08,30,09,05,6.40
2015,08,30,09,06,4.80
2015,08,30,09,07,6.40
2015,08,30,09,08,3.20
2015,08,30,09,09,6.40
2015,08,30,09,10,8.10
2015,08,30,09,11,6.40
2015,08,30,09,12,6.40
2015,08,30,09,13,4.80
2015,08,30,09,14,8.10
2015,08,30,09,15,4.80
2015,08,30,09,16,6.40
2015,08,30,09,17,6.40
2015,08,30,09,18,4.80
2015,08,30,09,19,8.10
2015,08,30,09,20,3.20
2015,08,30,09,21,6.40
2015,08,30,09,22,3.20
2015,08,30,09,23,4.80
2015,08,30,09,24,4.80
2015,08,30,09,25,3.20
2015,08,30,09,26,3.20
2015,08,30,09,27,4.80
2015,08,30,09,28,1.60
2015,08,30,09,29,4.80
2015,08,30,09,30,3.20
2015,08,30,09,31,3.20
2015,08,30,09,32,6.40
2015,08,30,09,33,6.40
2015,08,30,09,34,6.40
2015,08,30,09,35,6.40
2015,08,30,09,36,6.40
2015,08,30,09,37,3.20
2015,08,30,09,38,9.60
2015,08,30,09,39,6.40
2015,08,30,09,40,4.80
2015,08,30,09,41,6.40
2015,08,30,09,42,4.80
2015,08,30,09,43,3.20
2015,08,30,09,44,3.20
2015,08,30,09,45,6.40
2015,08,30,09,46,8.10
2015,08,30,09,47,4.80
2015,08,30,09,48,3.20
2015,08,30,09,49,4.80
2015,08,30,09,50,6.40
2015,08,30,09,51,6.40
2015,08,30,09,52,4.80
2015,08,30,09,53,8.10
2015,08,30,09,54,8.10
2015,08,30,09,55,4.80
2015,08,30,09,56,6.40
2015,08,30,09,57,3.20
2015,08,30,09,58,4.80
2015,08,30,09,59,4.80
2015,08,30,10,00,6.40
2015,08,30,10,01,3.20
2015,08,30,10,02,4.80
2015,08,30,10,03,3.20
2015,08,30,10,04,3.20
2015,08,30,10,05,1.60
2015,08,30,10,06,3.20
2015,08,30,10,07,3.20
2015,08,30,10,08,6.40
2015,08,30,10,09,6.40
2015,08,30,10,10,6.40
2015,08,30,10,11,4.80
2015,08,30,10,12,4.80
2015,08,30,10,13,4.80
2015,08,30,10,14,4.80
2015,08,30,10,15,4.80
2015,08,30,10,16,4.80
2015,08,30,10,17,8.10
2015,08,30,10,18,6.40
2015,08,30,10,19,6.40
2015,08,30,10,20,4.80
2015,08,30,10,21,8.10
2015,08,30,10,22,9.60
2015,08,30,10,23,6.40
2015,08,30,10,24,4.80
2015,08,30,10,25,6.40
2015,08,30,10,26,8.10
2015,08,30,10,27,8.10
2015,08,30,10,28,6.40
2015,08,30,10,29,6.40
2015,08,30,10,30,6.40
2015,08,30,10,31,8.10
2015,08,30,10,32,8.10
2015,08,30,10,33,8.10
2015,08,30,10,34,6.40
2015,08,30,10,35,6.40
2015,08,30,10,36,4.80
2015,08,30,10,37,4.80
2015,08,30,10,38,6.40
2015,08,30,10,39,4.80
2015,08,30,10,40,4.80
2015,08,30,10,41,6.40
2015,08,30,10,42,4.80
2015,08,30,10,43,9.60
2015,08,30,10,44,4.80
2015,08,30,10,45,8.10
2015,08,30,10,46,6.40
2015,08,30,10,47,8.10
2015,08,30,10,48,8.10
2015,08,30,10,49,6.40
2015,08,30,10,50,4.80
2015,08,30,10,51,6.40
2015,08,30,10,52,8.10
2015,08,30,10,53,8.10
2015,08,30,10,54,9.60
2015,08,30,10,55,8.10
2015,08,30,10,56,8.10
2015,08,30,10,57,9.60
2015,08,30,10,58,9.60
2015,08,30,10,59,4.80
2015,08,30,11,00,3.20
2015,08,30,11,01,4.80
2015,08,30,11,02,6.40
2015,08,30,11,03,8.10
2015,08,30,11,04,8.10
2015,08,30,11,05,8.10
2015,08,30,11,06,4.80
2015,08,30,11,07,3.20
2015,08,30,11,08,3.20
2015,08,30,11,09,4.80
2015,08,30,11,10,9.60
2015,08,30,11,11,6.40
2015,08,30,11,12,8.10
2015,08,30,11,13,8.10
2015,08,30,11,14,9.60
2015,08,30,11,15,6.40
2015,08,30,11,16,9.60
2015,08,30,11,17,9.60
2015,08,30,11,18,9.60
2015,08,30,11,19,8.10
2015,08,30,11,20,6.40
2015,08,30,11,21,9.60
2015,08,30,11,22,6.40
2015,08,30,11,23,8.10
2015,08,30,11,24,9.60
2015,08,30,11,25,8.10
2015,08,30,11,26,8.10
2015,08,30,11,27,6.40
2015,08,30,11,28,8.10
2015,08,30,11,29,6.40
2015,08,30,11,30,6.40
2015,08,30,11,31,6.40
2015,08,30,11,32,11.30
2015,08,30,11,33,8.10
2015,08,30,11,34,6.40
2015,08,30,11,35,9.60
2015,08,30,11,36,11.30
2015,08,30,11,37,6.40
2015,08,30,11,38,6.40
2015,08,30,11,39,9.60
2015,08,30,11,40,8.10
2015,08,30,11,41,9.60
2015,08,30,11,42,8.10
2015,08,30,11,43,19.30
2015,08,30,11,44,17.70
2015,08,30,11,45,16.10
2015,08,30,11,46,6.40
2015,08,30,11,47,6.40
2015,08,30,11,48,9.60
2015,08,30,11,49,6.40
2015,08,30,11,50,9.60
2015,08,30,11,51,17.70
2015,08,30,11,52,17.70
2015,08,30,11,53,16.10
2015,08,30,11,54,9.60
2015,08,30,11,55,11.30
2015,08,30,11,56,9.60
2015,08,30,11,57,8.10
2015,08,30,11,58,11.30
2015,08,30,11,59,8.10
2015,08,30,12,00,8.10
2015,08,30,12,01,6.40
2015,08,30,12,02,6.40
2015,08,30,12,03,8.10
2015,08,30,12,04,8.10
2015,08,30,12,05,6.40
2015,08,30,12,06,9.60
2015,08,30,12,07,8.10
2015,08,30,12,08,8.10
2015,08,30,12,09,6.40
2015,08,30,12,10,11.30
2015,08,30,12,11,9.60
2015,08,30,12,12,9.60
2015,08,30,12,13,8.10
2015,08,30,12,14,9.60
2015,08,30,12,15,11.30
2015,08,30,12,16,16.10
2015,08,30,12,17,17.70
2015,08,30,12,18,16.10
2015,08,30,12,19,17.70
2015,08,30,12,20,4.80
2015,08,30,12,21,9.60
2015,08,30,12,22,6.40
2015,08,30,12,23,11.30
2015,08,30,12,24,8.10
2015,08,30,12,25,4.80
2015,08,30,12,26,6.40
2015,08,30,12,27,11.30
2015,08,30,12,28,11.30
2015,08,30,12,29,9.60
2015,08,30,12,30,14.50
2015,08,30,12,31,9.60
2015,08,30,12,32,8.10
2015,08,30,12,33,9.60
2015,08,30,12,34,6.40
2015,08,30,12,35,4.80
2015,08,30,12,36,9.60
2015,08,30,12,37,9.60
2015,08,30,12,38,6.40
2015,08,30,12,39,16.10
2015,08,30,12,40,11.30
2015,08,30,12,41,11.30
2015,08,30,12,42,9.60
2015,08,30,12,43,9.60
2015,08,30,12,44,11.30
2015,08,30,12,45,11.30
2015,08,30,12,46,9.60
2015,08,30,12,47,8.10
2015,08,30,12,48,9.60
2015,08,30,12,49,9.60
2015,08,30,12,50,8.10
2015,08,30,12,51,11.30
2015,08,30,12,52,14.50
2015,08,30,12,53,9.60
2015,08,30,12,54,9.60
2015,08,30,12,55,9.60
2015,08,30,12,56,8.10
2015,08,30,12,57,3.20
2015,08,30,12,58,3.20
2015,08,30,12,59,11.30
2015,08,30,13,00,14.50
2015,08,30,13,01,6.40
2015,08,30,13,02,8.10
2015,08,30,13,03,6.40
2015,08,30,13,04,3.20
2015,08,30,13,05,16.10
2015,08,30,13,06,22.50
2015,08,30,13,07,19.30
2015,08,30,13,08,19.30
2015,08,30,13,09,16.10
2015,08,30,13,10,16.10
2015,08,30,13,11,14.50
2015,08,30,13,12,9.60
2015,08,30,13,13,16.10
2015,08,30,13,14,9.60
2015,08,30,13,15,9.60
2015,08,30,13,16,6.40
2015,08,30,13,17,6.40
2015,08,30,13,18,8.10
2015,08,30,13,19,9.60
2015,08,30,13,20,16.10
2015,08,30,13,21,17.70
2015,08,30,13,22,12.90
2015,08,30,13,23,11.30
2015,08,30,13,24,6.40
2015,08,30,13,25,4.80
2015,08,30,13,26,3.20
2015,08,30,13,27,6.40
2015,08,30,13,28,8.10
2015,08,30,13,29,9.60
2015,08,30,13,30,6.40
2015,08,30,13,31,8.10
2015,08,30,13,32,4.80
2015,08,30,13,33,9.60
2015,08,30,13,34,6.40
2015,08,30,13,35,16.10
2015,08,30,13,36,11.30
2015,08,30,13,37,6.40
2015,08,30,13,38,6.40
2015,08,30,13,39,16.10
2015,08,30,13,40,12.90
2015,08,30,13,41,11.30
2015,08,30,13,42,9.60
2015,08,30,13,43,6.40
2015,08,30,13,44,6.40
2015,08,30,13,45,8.10
2015,08,30,13,46,14.50
2015,08,30,13,47,11.30
2015,08,30,13,48,11.30
2015,08,30,13,49,12.90
2015,08,30,13,50,8.10
2015,08,30,13,51,6.40
2015,08,30,13,52,11.30
2015,08,30,13,53,12.90
2015,08,30,13,54,14.50
2015,08,30,13,55,11.30
2015,08,30,13,56,16.10
2015,08,30,13,57,17.70
2015,08,30,13,58,19.30
2015,08,30,13,59,19.30
2015,08,30,14,00,16.10
2015,08,30,14,01,14.50
2015,08,30,14,02,16.10
2015,08,30,14,03,16.10
2015,08,30,14,04,16.10
2015,08,30,14,05,14.50
2015,08,30,14,06,8.10
2015,08,30,14,07,8.10
2015,08,30,14,08,11.30
2015,08,30,14,09,17.70
2015,08,30,14,10,16.10
2015,08,30,14,11,9.60
2015,08,30,14,12,16.10
2015,08,30,14,13,19.30
2015,08,30,14,14,17.70
2015,08,30,14,15,14.50
2015,08,30,14,16,11.30
2015,08,30,14,17,16.10
2015,08,30,14,18,16.10
2015,08,30,14,19,14.50
2015,08,30,14,20,17.70
2015,08,30,14,21,16.10
2015,08,30,14,22,9.60
2015,08,30,14,23,14.50
2015,08,30,14,24,16.10
2015,08,30,14,25,17.70
2015,08,30,14,26,19.30
2015,08,30,14,27,14.50
2015,08,30,14,28,16.10
2015,08,30,14,29,14.50
2015,08,30,14,30,8.10
2015,08,30,14,31,9.60
2015,08,30,14,32,9.60
2015,08,30,14,33,8.10
2015,08,30,14,34,4.80
2015,08,30,14,35,8.10
2015,08,30,14,36,6.40
2015,08,30,14,37,6.40
2015,08,30,14,38,14.50
2015,08,30,14,39,11.30
2015,08,30,14,40,11.30
2015,08,30,14,41,9.60
2015,08,30,14,42,11.30
2015,08,30,14,43,14.50
2015,08,30,14,44,11.30
2015,08,30,14,45,12.90
2015,08,30,14,46,9.60
2015,08,30,14,47,8.10
2015,08,30,14,48,9.60
2015,08,30,14,49,6.40
2015,08,30,14,50,8.10
2015,08,30,14,51,12.90
2015,08,30,14,52,16.10
2015,08,30,14,53,6.40
2015,08,30,14,54,4.80
2015,08,30,14,55,9.60
2015,08,30,14,56,16.10
2015,08,30,14,57,8.10
2015,08,30,14,58,4.80
2015,08,30,14,59,4.80
2015,08,30,15,00,4.80
2015,08,30,15,01,6.40
2015,08,30,15,02,3.20
2015,08,30,15,03,8.10
2015,08,30,15,04,9.60
2015,08,30,15,05,9.60
2015,08,30,15,06,11.30
2015,08,30,15,07,4.80
2015,08,30,15,08,6.40
2015,08,30,15,09,4.80
2015,08,30,15,10,6.40
2015,08,30,15,11,12.90
2015,08,30,15,12,9.60
2015,08,30,15,13,4.80
2015,08,30,15,14,8.10
2015,08,30,15,15,6.40
2015,08,30,15,16,4.80
2015,08,30,15,17,4.80
2015,08,30,15,18,4.80
2015,08,30,15,19,8.10
2015,08,30,15,20,4.80
2015,08,30,15,21,8.10
2015,08,30,15,22,6.40
2015,08,30,15,23,4.80
2015,08,30,15,24,6.40
2015,08,30,15,25,8.10
2015,08,30,15,26,14.50
2015,08,30,15,27,8.10
2015,08,30,15,28,6.40
2015,08,30,15,29,6.40
2015,08,30,15,30,8.10
2015,08,30,15,31,11.30
2015,08,30,15,32,8.10
2015,08,30,15,33,8.10
2015,08,30,15,34,6.40
2015,08,30,15,35,8.10
2015,08,30,15,36,6.40
2015,08,30,15,37,4.80
2015,08,30,15,38,6.40
2015,08,30,15,39,9.60
2015,08,30,15,40,9.60
2015,08,30,15,41,9.60
2015,08,30,15,42,4.80
2015,08,30,15,43,6.40
2015,08,30,15,44,6.40
2015,08,30,15,45,8.10
2015,08,30,15,46,9.60
2015,08,30,15,47,8.10
2015,08,30,15,48,8.10
2015,08,30,15,49,6.40
2015,08,30,15,50,4.80
2015,08,30,15,51,4.80
2015,08,30,15,52,8.10
2015,08,30,15,53,8.10
2015,08,30,15,54,11.30
2015,08,30,15,55,8.10
2015,08,30,15,56,4.80
2015,08,30,15,57,4.80
2015,08,30,15,58,8.10
2015,08,30,15,59,6.40
2015,08,30,16,00,6.40
2015,08,30,16,01,3.20
2015,08,30,16,02,4.80
2015,08,30,16,03,6.40
2015,08,30,16,04,6.40
2015,08,30,16,05,8.10
2015,08,30,16,06,19.30
2015,08,30,16,07,17.70
2015,08,30,16,08,9.60
2015,08,30,16,09,16.10
2015,08,30,16,10,6.40
2015,08,30,16,11,12.90
2015,08,30,16,12,8.10
2015,08,30,16,13,6.40
2015,08,30,16,14,14.50
2015,08,30,16,15,17.70
2015,08,30,16,16,16.10
2015,08,30,16,17,16.10
2015,08,30,16,18,12.90
2015,08,30,16,19,14.50
2015,08,30,16,20,14.50
2015,08,30,16,21,9.60
2015,08,30,16,22,14.50
2015,08,30,16,23,9.60
2015,08,30,16,24,9.60
2015,08,30,16,25,8.10
2015,08,30,16,26,6.40
2015,08,30,16,27,11.30
2015,08,30,16,28,14.50
2015,08,30,16,29,8.10
2015,08,30,16,30,17.70
2015,08,30,16,31,8.10
2015,08,30,16,32,9.60
2015,08,30,16,33,6.40
2015,08,30,16,34,4.80
2015,08,30,16,35,4.80
2015,08,30,16,36,12.90
2015,08,30,16,37,12.90
2015,08,30,16,38,4.80
2015,08,30,16,39,8.10
2015,08,30,16,40,9.60
2015,08,30,16,41,11.30
2015,08,30,16,42,11.30
2015,08,30,16,43,8.10
2015,08,30,16,44,4.80
2015,08,30,16,45,4.80
2015,08,30,16,46,9.60
2015,08,30,16,47,6.40
2015,08,30,16,48,6.40
2015,08,30,16,49,6.40
2015,08,30,16,50,4.80
2015,08,30,16,51,4.80
2015,08,30,16,52,3.20
2015,08,30,16,53,9.60
2015,08,30,16,54,8.10
2015,08,30,16,55,6.40
2015,08,30,16,56,9.60
2015,08,30,16,57,8.10
2015,08,30,16,58,8.10
2015,08,30,16,59,6.40
2015,08,30,17,00,8.10
2015,08,30,17,01,11.30
2015,08,30,17,02,9.60
2015,08,30,17,03,8.10
2015,08,30,17,04,16.10
2015,08,30,17,05,8.10
2015,08,30,17,06,8.10
2015,08,30,17,07,6.40
2015,08,30,17,08,8.10
2015,08,30,17,09,9.60
2015,08,30,17,10,8.10
2015,08,30,17,11,8.10
2015,08,30,17,12,8.10
2015,08,30,17,13,4.80
2015,08,30,17,14,4.80
2015,08,30,17,15,1.60
2015,08,30,17,16,1.60
2015,08,30,17,17,6.40
2015,08,30,17,18,8.10
2015,08,30,17,19,6.40
2015,08,30,17,20,8.10
2015,08,30,17,21,11.30
2015,08,30,17,22,4.80
2015,08,30,17,23,4.80
2015,08,30,17,24,4.80
2015,08,30,17,25,9.60
2015,08,30,17,26,4.80
2015,08,30,17,27,6.40
2015,08,30,17,28,4.80
2015,08,30,17,29,1.60
2015,08,30,17,30,3.20
2015,08,30,17,31,6.40
2015,08,30,17,32,8.10
2015,08,30,17,33,11.30
2015,08,30,17,34,16.10
2015,08,30,17,35,9.60
2015,08,30,17,36,11.30
2015,08,30,17,37,11.30
2015,08,30,17,38,17.70
2015,08,30,17,39,11.30
2015,08,30,17,40,9.60
2015,08,30,17,41,14.50
2015,08,30,17,42,9.60
2015,08,30,17,43,17.70
2015,08,30,17,44,17.70
2015,08,30,17,45,19.30
2015,08,30,17,46,17.70
2015,08,30,17,47,17.70
2015,08,30,17,48,11.30
2015,08,30,17,49,14.50
2015,08,30,17,50,12.90
2015,08,30,17,51,17.70
2015,08,30,17,52,14.50
2015,08,30,17,53,8.10
2015,08,30,17,54,3.20
2015,08,30,17,55,1.60
2015,08,30,17,56,4.80
2015,08,30,17,57,8.10
2015,08,30,17,58,6.40
2015,08,30,17,59,4.80
2015,08,30,18,00,3.20
2015,08,30,18,01,4.80
2015,08,30,18,02,3.20
2015,08,30,18,03,1.60
2015,08,30,18,04,4.80
2015,08,30,18,05,4.80
2015,08,30,18,06,3.20
2015,08,30,18,07,1.60
2015,08,30,18,08,4.80
2015,08,30,18,09,8.10
2015,08,30,18,10,19.30
2015,08,30,18,11,11.30
2015,08,30,18,12,4.80
2015,08,30,18,13,8.10
2015,08,30,18,14,9.60
2015,08,30,18,15,9.60
2015,08,30,18,16,14.50
2015,08,30,18,17,16.10
2015,08,30,18,18,16.10
2015,08,30,18,19,14.50
2015,08,30,18,20,9.60
2015,08,30,18,21,9.60
2015,08,30,18,22,6.40
2015,08,30,18,23,9.60
2015,08,30,18,24,16.10
2015,08,30,18,25,9.60
2015,08,30,18,26,6.40
2015,08,30,18,27,8.10
2015,08,30,18,28,9.60
2015,08,30,18,29,8.10
2015,08,30,18,30,1.60
2015,08,30,18,31,1.60
2015,08,30,18,32,6.40
2015,08,30,18,33,14.50
2015,08,30,18,34,11.30
2015,08,30,18,35,11.30
2015,08,30,18,36,11.30
2015,08,30,18,37,12.90
2015,08,30,18,38,11.30
2015,08,30,18,39,19.30
2015,08,30,18,40,20.90
2015,08,30,18,41,19.30
2015,08,30,18,42,22.50
2015,08,30,18,43,16.10
2015,08,30,18,44,16.10
2015,08,30,18,45,17.70
2015,08,30,18,46,24.20
2015,08,30,18,47,19.30
2015,08,30,18,48,17.70
2015,08,30,18,49,17.70
2015,08,30,18,50,20.90
2015,08,30,18,51,17.70
2015,08,30,18,52,16.10
2015,08,30,18,53,19.30
2015,08,30,18,54,14.50
2015,08,30,18,55,17.70
2015,08,30,18,56,12.90
2015,08,30,18,57,9.60
2015,08,30,18,58,20.90
2015,08,30,18,59,33.80
2015,08,30,19,00,16.10
2015,08,30,19,01,20.90
2015,08,30,19,02,25.70
2015,08,30,19,03,19.30
2015,08,30,19,04,14.50
2015,08,30,19,05,17.70
2015,08,30,19,06,19.30
2015,08,30,19,07,22.50
2015,08,30,19,08,19.30
2015,08,30,19,09,27.40
2015,08,30,19,10,16.10
2015,08,30,19,11,22.50
2015,08,30,19,12,12.90
2015,08,30,19,13,14.50
2015,08,30,19,14,14.50
2015,08,30,19,15,22.50
2015,08,30,19,16,6.40
2015,08,30,19,17,22.50
2015,08,30,19,18,29.00
2015,08,30,19,19,17.70
2015,08,30,19,20,16.10
2015,08,30,19,21,20.90
2015,08,30,19,22,17.70
2015,08,30,19,23,11.30
2015,08,30,19,24,22.50
2015,08,30,19,25,27.40
2015,08,30,19,26,19.30
2015,08,30,19,27,19.30
2015,08,30,19,28,17.70
2015,08,30,19,29,11.30
2015,08,30,19,30,20.90
2015,08,30,19,31,12.90
2015,08,30,19,32,16.10
2015,08,30,19,33,27.40
2015,08,30,19,34,22.50
2015,08,30,19,35,22.50
2015,08,30,19,36,29.00
2015,08,30,19,37,16.10
2015,08,30,19,38,19.30
2015,08,30,19,39,24.20
2015,08,30,19,40,19.30
2015,08,30,19,41,17.70
2015,08,30,19,42,16.10
2015,08,30,19,43,20.90
2015,08,30,19,44,20.90
2015,08,30,19,45,24.20
2015,08,30,19,46,29.00
2015,08,30,19,47,20.90
2015,08,30,19,48,16.10
2015,08,30,19,49,24.20
2015,08,30,19,50,35.40
2015,08,30,19,51,22.50
2015,08,30,19,52,24.20
2015,08,30,19,53,17.70
2015,08,30,19,54,32.20
2015,08,30,19,55,24.20
2015,08,30,19,56,22.50
2015,08,30,19,57,22.50
2015,08,30,19,58,25.70
2015,08,30,19,59,24.20
2015,08,30,20,00,29.00
2015,08,30,20,01,14.50
2015,08,30,20,02,17.70
2015,08,30,20,03,20.90
2015,08,30,20,04,20.90
2015,08,30,20,05,24.20
2015,08,30,20,06,24.20
2015,08,30,20,07,24.20
2015,08,30,20,08,16.10
2015,08,30,20,09,16.10
2015,08,30,20,10,17.70
2015,08,30,20,11,17.70
2015,08,30,20,12,20.90
2015,08,30,20,13,20.90
2015,08,30,20,14,27.40
2015,08,30,20,15,22.50
2015,08,30,20,16,17.70
2015,08,30,20,17,20.90
2015,08,30,20,18,17.70
2015,08,30,20,19,20.90
2015,08,30,20,20,20.90
2015,08,30,20,21,20.90
2015,08,30,20,22,19.30
2015,08,30,20,23,17.70
2015,08,30,20,24,16.10
2015,08,30,20,25,20.90
2015,08,30,20,26,19.30
2015,08,30,20,27,14.50
2015,08,30,20,28,14.50
2015,08,30,20,29,17.70
2015,08,30,20,30,16.10
2015,08,30,20,31,24.20
2015,08,30,20,32,22.50
2015,08,30,20,33,22.50
2015,08,30,20,34,25.70
2015,08,30,20,35,22.50
2015,08,30,20,36,22.50
2015,08,30,20,37,19.30
2015,08,30,20,38,20.90
2015,08,30,20,39,24.20
2015,08,30,20,40,16.10
2015,08,30,20,41,22.50
2015,08,30,20,42,24.20
2015,08,30,20,43,19.30
2015,08,30,20,44,19.30
2015,08,30,20,45,25.70
2015,08,30,20,46,12.90
2015,08,30,20,47,14.50
2015,08,30,20,48,17.70
2015,08,30,20,49,22.50
2015,08,30,20,50,17.70
2015,08,30,20,51,12.90
2015,08,30,20,52,14.50
2015,08,30,20,53,11.30
2015,08,30,20,54,12.90
2015,08,30,20,55,16.10
2015,08,30,20,56,17.70
2015,08,30,20,57,19.30
2015,08,30,20,58,11.30
2015,08,30,20,59,19.30
2015,08,30,21,00,20.90
2015,08,30,21,01,25.70
2015,08,30,21,02,25.70
2015,08,30,21,03,14.50
2015,08,30,21,04,20.90
2015,08,30,21,05,19.30
2015,08,30,21,06,16.10
2015,08,30,21,07,20.90
2015,08,30,21,08,19.30
2015,08,30,21,09,19.30
2015,08,30,21,10,16.10
2015,08,30,21,11,24.20
2015,08,30,21,12,17.70
2015,08,30,21,13,19.30
2015,08,30,21,14,20.90
2015,08,30,21,15,16.10
2015,08,30,21,16,12.90
2015,08,30,21,17,17.70
2015,08,30,21,18,16.10
2015,08,30,21,19,16.10
2015,08,30,21,20,11.30
2015,08,30,21,21,19.30
2015,08,30,21,22,16.10
2015,08,30,21,23,9.60
2015,08,30,21,24,9.60
2015,08,30,21,25,9.60
2015,08,30,21,26,11.30
2015,08,30,21,27,11.30
2015,08,30,21,28,11.30
2015,08,30,21,29,12.90
2015,08,30,21,30,16.10
2015,08,30,21,31,16.10
2015,08,30,21,32,9.60
2015,08,30,21,33,8.10
2015,08,30,21,34,9.60
2015,08,30,21,35,11.30
2015,08,30,21,36,9.60
2015,08,30,21,37,11.30
2015,08,30,21,38,9.60
2015,08,30,21,39,9.60
2015,08,30,21,40,8.10
2015,08,30,21,41,3.20
2015,08,30,21,42,8.10
2015,08,30,21,43,9.60
2015,08,30,21,44,4.80
2015,08,30,21,45,3.20
2015,08,30,21,46,6.40
2015,08,30,21,47,14.50
2015,08,30,21,48,8.10
2015,08,30,21,49,8.10
2015,08,30,21,50,6.40
2015,08,30,21,51,8.10
2015,08,30,21,52,8.10
2015,08,30,21,53,9.60
2015,08,30,21,54,4.80
2015,08,30,21,55,9.60
2015,08,30,21,56,6.40
2015,08,30,21,57,6.40
2015,08,30,21,58,4.80
2015,08,30,21,59,8.10
2015,08,30,22,00,11.30
2015,08,30,22,01,8.10
2015,08,30,22,02,11.30
2015,08,30,22,03,8.10
2015,08,30,22,04,8.10
2015,08,30,22,05,11.30
2015,08,30,22,06,11.30
2015,08,30,22,07,9.60
2015,08,30,22,08,11.30
2015,08,30,22,09,19.30
2015,08,30,22,10,20.90
2015,08,30,22,11,14.50
2015,08,30,22,12,14.50
2015,08,30,22,13,11.30
2015,08,30,22,14,9.60
2015,08,30,22,15,11.30
2015,08,30,22,16,11.30
2015,08,30,22,17,8.10
2015,08,30,22,18,14.50
2015,08,30,22,19,11.30
2015,08,30,22,20,16.10
2015,08,30,22,21,11.30
2015,08,30,22,22,9.60